Regional Weather Roundup
Issued by NWS

Home | Current Version | Previous Version | Text Only | Print | Product List | Glossary On
Versions: 1 2 3 4 5 6 7 8 9 10 11 12 13 14 15 16 17 18 19 20 21 22 23 24 25 26 27 28 29 30 31 32 33 34 35 36 37 38 39 40 41 42 43 44 45 46 47 48 49 50
000
ASUS43 KBIS 191159
RWRND

NORTH DAKOTA REGIONAL WEATHER ROUNDUP
NATIONAL WEATHER SERVICE BISMARCK ND
600 AM CST FRI DEC 19 2014

NOTE: "FAIR" INDICATES FEW OR NO CLOUDS BELOW 12,000 FEET WITH NO
SIGNIFICANT WEATHER AND/OR OBSTRUCTIONS TO VISIBILITY.


NDZ001>003-009>011-017-191300-
NORTHWEST NORTH DAKOTA

CITY           SKY/WX    TMP DP  RH WIND       PRES   REMARKS
WILLISTON      FOG       22  20  92 CALM      29.92S VSB 1/4
6HR MIN TEMP:  22; 6HR MAX TEMP:  28;

MINOT          FOG       27  26  96 CALM      29.92F VSB 1/2
$$

NDZ018>021-031>035-040>046-191300-
SOUTHWEST NORTH DAKOTA

CITY           SKY/WX    TMP DP  RH WIND       PRES   REMARKS
BISMARCK       CLOUDY    22  21  96 SE5       29.96F WCI  16
6HR MIN TEMP:  18; 6HR MAX TEMP:  27;

GARRISON         N/A     22  20  92 E5        29.92S WCI  16
6HR MIN TEMP:  21; 6HR MAX TEMP:  30;

HETTINGER ARPT CLOUDY    25  21  85 W5        29.93S WCI  19
$$

NDZ004>008-012>016-024-026-027-054-191300-
NORTHEAST NORTH DAKOTA

CITY           SKY/WX    TMP DP  RH WIND       PRES   REMARKS
GRAND FORKS    CLOUDY    22  20  92 S9        30.07F FOG     WCI  12
DEVILS LAKE    CLOUDY    25  18  74 S8        29.96F WCI  16
$$

NDZ022-023-025-028>030-036>039-047>053-191300-
SOUTHEAST NORTH DAKOTA

CITY           SKY/WX    TMP DP  RH WIND       PRES   REMARKS
FARGO          CLOUDY    24  22  91 S15       30.10F FOG     WCI  11
6HR MIN TEMP:  22; 6HR MAX TEMP:  24; 6HR PCP: TRACE;

JAMESTOWN      CLOUDY    26  25  96 S12       30.00S FOG     WCI  16
$$




USA.gov is the U.S. government's official web portal to all federal, state and local government web resources and services.